Time,TemperatureF,DewpointF,PressureIn,WindDirection,WindDirectionDegrees,WindSpeedMPH,WindSpeedGustMPH,Humidity,HourlyPrecipIn,Conditions,Clouds,dailyrainin,SolarRadiationWatts/m^2,SoftwareType,DateUTC
2015-08-27 00:02:00,74.6,51.9,29.74,SSW,199,5.0,7.0,45,0.00,,,0.00,0.00,VWS V15.00,2015-08-27 05:02:00,
2015-08-27 00:07:00,74.6,51.9,29.74,SSW,199,2.0,10.0,45,0.00,,,0.00,0.00,VWS V15.00,2015-08-27 05:07:00,
2015-08-27 00:12:00,74.6,52.5,29.74,SW,230,3.0,13.0,46,0.00,,,0.00,0.00,VWS V15.00,2015-08-27 05:12:00,
2015-08-27 00:17:00,74.4,52.3,29.73,SSW,192,13.0,13.0,46,0.00,,,0.00,0.00,VWS V15.00,2015-08-27 05:17:00,
2015-08-27 00:22:00,74.2,52.7,29.73,SSW,206,6.0,7.0,47,0.00,,,0.00,0.00,VWS V15.00,2015-08-27 05:22:00,
2015-08-27 00:27:00,74.2,52.7,29.73,SW,222,7.0,8.0,47,0.00,,,0.00,0.00,VWS V15.00,2015-08-27 05:27:00,
2015-08-27 00:32:00,74.2,52.7,29.72,South,185,7.0,7.0,47,0.00,,,0.00,0.00,VWS V15.00,2015-08-27 05:32:00,
2015-08-27 00:37:00,74.2,53.3,29.72,SSW,209,5.0,8.0,48,0.00,,,0.00,0.00,VWS V15.00,2015-08-27 05:37:00,
2015-08-27 00:42:00,74.4,53.5,29.72,South,189,5.0,7.0,48,0.00,,,0.00,0.00,VWS V15.00,2015-08-27 05:42:00,
2015-08-27 00:47:00,74.6,53.6,29.71,SSW,203,7.0,7.0,48,0.00,,,0.00,0.00,VWS V15.00,2015-08-27 05:47:00,
2015-08-27 00:52:00,74.7,53.2,29.71,SSW,205,3.0,5.0,47,0.00,,,0.00,0.00,VWS V15.00,2015-08-27 05:52:00,
2015-08-27 00:53:00,74.7,53.2,29.71,SSW,198,1.0,7.0,47,0.00,,,0.00,0.00,VWS V15.00,2015-08-27 05:53:00,
2015-08-27 00:58:00,74.9,53.3,29.71,SSW,205,2.0,8.0,47,0.00,,,0.00,0.00,VWS V15.00,2015-08-27 05:58:00,
2015-08-27 01:03:00,75.1,53.5,29.71,SSW,208,11.0,12.0,47,0.00,,,0.00,0.00,VWS V15.00,2015-08-27 06:03:00,
2015-08-27 01:08:00,75.1,54.1,29.71,SSW,198,5.0,12.0,48,0.00,,,0.00,0.00,VWS V15.00,2015-08-27 06:08:00,
2015-08-27 01:13:00,75.3,54.3,29.71,SSW,212,5.0,6.0,48,0.00,,,0.00,0.00,VWS V15.00,2015-08-27 06:13:00,
2015-08-27 01:18:00,75.1,54.1,29.70,SSW,206,3.0,7.0,48,0.00,,,0.00,0.00,VWS V15.00,2015-08-27 06:18:00,
2015-08-27 01:23:00,75.1,54.7,29.70,SSE,162,1.0,10.0,49,0.00,,,0.00,0.00,VWS V15.00,2015-08-27 06:23:00,
2015-08-27 01:28:00,74.9,55.0,29.70,SSW,199,10.0,10.0,50,0.00,,,0.00,0.00,VWS V15.00,2015-08-27 06:28:00,
2015-08-27 01:33:00,74.9,55.0,29.70,SSW,206,1.0,10.0,50,0.00,,,0.00,0.00,VWS V15.00,2015-08-27 06:33:00,
2015-08-27 01:38:00,74.7,54.8,29.70,South,182,5.0,8.0,50,0.00,,,0.00,0.00,VWS V15.00,2015-08-27 06:38:00,
2015-08-27 01:43:00,74.6,55.3,29.70,SW,222,5.0,11.0,51,0.00,,,0.00,0.00,VWS V15.00,2015-08-27 06:43:00,
2015-08-27 01:48:00,74.4,55.1,29.70,SW,227,2.0,7.0,51,0.00,,,0.00,0.00,VWS V15.00,2015-08-27 06:48:00,
2015-08-27 01:53:00,74.2,55.5,29.70,SSE,164,5.0,5.0,52,0.00,,,0.00,0.00,VWS V15.00,2015-08-27 06:53:00,
2015-08-27 01:58:00,74.0,55.3,29.70,WSW,237,2.0,8.0,52,0.00,,,0.00,0.00,VWS V15.00,2015-08-27 06:58:00,
2015-08-27 02:03:00,74.0,55.8,29.69,SW,217,2.0,11.0,53,0.00,,,0.00,0.00,VWS V15.00,2015-08-27 07:03:00,
2015-08-27 02:08:00,74.0,55.8,29.69,SSW,209,6.0,7.0,53,0.00,,,0.00,0.00,VWS V15.00,2015-08-27 07:08:00,
2015-08-27 02:13:00,74.2,56.0,29.69,SSW,192,0.0,11.0,53,0.00,,,0.00,0.00,VWS V15.00,2015-08-27 07:13:00,
2015-08-27 02:18:00,74.2,55.5,29.68,South,185,6.0,11.0,52,0.00,,,0.00,0.00,VWS V15.00,2015-08-27 07:18:00,
2015-08-27 02:23:00,74.4,55.7,29.68,WSW,251,2.0,9.0,52,0.00,,,0.00,0.00,VWS V15.00,2015-08-27 07:23:00,
2015-08-27 02:28:00,74.4,55.7,29.68,South,182,0.0,11.0,52,0.00,,,0.00,0.00,VWS V15.00,2015-08-27 07:28:00,
2015-08-27 02:33:00,74.6,55.8,29.67,South,189,6.0,8.0,52,0.00,,,0.00,0.00,VWS V15.00,2015-08-27 07:33:00,
2015-08-27 02:38:00,74.7,55.9,29.67,SSW,210,2.0,10.0,52,0.00,,,0.00,0.00,VWS V15.00,2015-08-27 07:38:00,
2015-08-27 02:43:00,74.9,55.6,29.67,SSW,193,7.0,7.0,51,0.00,,,0.00,0.00,VWS V15.00,2015-08-27 07:43:00,
2015-08-27 02:48:00,75.1,55.8,29.67,SW,217,2.0,7.0,51,0.00,,,0.00,0.00,VWS V15.00,2015-08-27 07:48:00,
2015-08-27 02:53:00,75.1,55.8,29.67,SSW,195,2.0,5.0,51,0.00,,,0.00,0.00,VWS V15.00,2015-08-27 07:53:00,
2015-08-27 02:58:00,75.1,56.3,29.67,SW,230,2.0,11.0,52,0.00,,,0.00,0.00,VWS V15.00,2015-08-27 07:58:00,
2015-08-27 03:03:00,75.1,56.3,29.66,SSW,209,5.0,7.0,52,0.00,,,0.00,0.00,VWS V15.00,2015-08-27 08:03:00,
2015-08-27 03:08:00,75.1,56.3,29.66,South,182,5.0,7.0,52,0.00,,,0.00,0.00,VWS V15.00,2015-08-27 08:08:00,
2015-08-27 03:13:00,74.9,56.1,29.66,SSW,205,3.0,8.0,52,0.00,,,0.00,0.00,VWS V15.00,2015-08-27 08:13:00,
2015-08-27 03:18:00,75.1,56.3,29.66,SSW,192,0.0,12.0,52,0.00,,,0.00,0.00,VWS V15.00,2015-08-27 08:18:00,
2015-08-27 03:23:00,75.1,56.3,29.66,South,184,3.0,11.0,52,0.00,,,0.00,0.00,VWS V15.00,2015-08-27 08:23:00,
2015-08-27 03:28:00,74.9,56.1,29.66,SSE,161,3.0,7.0,52,0.00,,,0.00,0.00,VWS V15.00,2015-08-27 08:28:00,
2015-08-27 03:33:00,74.7,55.9,29.66,South,176,0.0,11.0,52,0.00,,,0.00,0.00,VWS V15.00,2015-08-27 08:33:00,
2015-08-27 03:38:00,74.6,56.4,29.66,SSW,198,6.0,13.0,53,0.00,,,0.00,0.00,VWS V15.00,2015-08-27 08:38:00,
2015-08-27 03:42:00,74.4,56.2,29.66,SSW,202,0.0,7.0,53,0.00,,,0.00,0.00,VWS V15.00,2015-08-27 08:42:00,
2015-08-27 03:47:00,74.2,56.5,29.65,SSW,193,2.0,11.0,54,0.00,,,0.00,0.00,VWS V15.00,2015-08-27 08:47:00,
2015-08-27 03:52:00,74.0,56.3,29.65,SE,136,2.0,3.0,54,0.00,,,0.00,0.00,VWS V15.00,2015-08-27 08:52:00,
2015-08-27 03:57:00,73.9,56.2,29.65,SSW,195,6.0,7.0,54,0.00,,,0.00,0.00,VWS V15.00,2015-08-27 08:57:00,
2015-08-27 04:02:00,73.5,56.4,29.66,South,191,0.0,6.0,55,0.00,,,0.00,0.00,VWS V15.00,2015-08-27 09:02:00,
2015-08-27 04:07:00,73.2,56.6,29.66,SSW,196,3.0,8.0,56,0.00,,,0.00,0.00,VWS V15.00,2015-08-27 09:07:00,
2015-08-27 04:12:00,73.0,56.4,29.66,SSW,203,3.0,7.0,56,0.00,,,0.00,0.00,VWS V15.00,2015-08-27 09:12:00,
2015-08-27 04:17:00,72.7,56.6,29.66,SW,215,0.0,1.0,57,0.00,,,0.00,0.00,VWS V15.00,2015-08-27 09:17:00,
2015-08-27 04:22:00,72.5,56.4,29.66,SSW,202,0.0,0.0,57,0.00,,,0.00,0.00,VWS V15.00,2015-08-27 09:22:00,
2015-08-27 04:27:00,72.1,56.5,29.66,South,171,0.0,0.0,58,0.00,,,0.00,0.00,VWS V15.00,2015-08-27 09:27:00,
2015-08-27 04:32:00,72.0,56.9,29.67,SSE,162,0.0,0.0,59,0.00,,,0.00,0.00,VWS V15.00,2015-08-27 09:32:00,
2015-08-27 04:37:00,71.8,56.7,29.67,South,186,0.0,0.0,59,0.00,,,0.00,0.00,VWS V15.00,2015-08-27 09:37:00,
2015-08-27 04:42:00,71.5,56.9,29.67,South,186,0.0,0.0,60,0.00,,,0.00,0.00,VWS V15.00,2015-08-27 09:42:00,
2015-08-27 04:47:00,71.3,56.7,29.67,South,185,0.0,0.0,60,0.00,,,0.00,0.00,VWS V15.00,2015-08-27 09:47:00,
2015-08-27 04:52:00,71.1,56.5,29.67,South,184,0.0,0.0,60,0.00,,,0.00,0.00,VWS V15.00,2015-08-27 09:52:00,
2015-08-27 04:57:00,70.9,56.8,29.67,South,184,0.0,0.0,61,0.00,,,0.00,0.00,VWS V15.00,2015-08-27 09:57:00,
2015-08-27 05:02:00,70.8,57.2,29.67,South,185,0.0,0.0,62,0.00,,,0.00,0.00,VWS V15.00,2015-08-27 10:02:00,
2015-08-27 05:07:00,70.8,57.2,29.67,South,186,0.0,0.0,62,0.00,,,0.00,0.00,VWS V15.00,2015-08-27 10:07:00,
2015-08-27 05:12:00,70.6,57.4,29.67,South,188,0.0,0.0,63,0.00,,,0.00,0.00,VWS V15.00,2015-08-27 10:12:00,
2015-08-27 05:17:00,70.4,57.7,29.68,South,191,0.0,0.0,64,0.00,,,0.00,0.00,VWS V15.00,2015-08-27 10:17:00,
2015-08-27 05:22:00,70.3,57.6,29.68,South,191,0.0,0.0,64,0.00,,,0.00,0.00,VWS V15.00,2015-08-27 10:22:00,
2015-08-27 05:27:00,70.1,57.4,29.68,South,186,0.0,0.0,64,0.00,,,0.00,0.00,VWS V15.00,2015-08-27 10:27:00,
2015-08-27 05:32:00,69.9,57.2,29.68,SSW,192,0.0,0.0,64,0.00,,,0.00,0.00,VWS V15.00,2015-08-27 10:32:00,
2015-08-27 05:35:00,69.9,57.2,29.68,SSW,195,0.0,0.0,64,0.00,,,0.00,0.00,VWS V15.00,2015-08-27 10:35:00,
2015-08-27 05:40:00,69.9,57.2,29.68,SSW,196,0.0,0.0,64,0.00,,,0.00,0.00,VWS V15.00,2015-08-27 10:40:00,
2015-08-27 05:45:00,69.8,57.1,29.68,South,191,0.0,0.0,64,0.00,,,0.00,0.00,VWS V15.00,2015-08-27 10:45:00,
2015-08-27 05:50:00,69.8,57.1,29.68,SSW,206,0.0,0.0,64,0.00,,,0.00,0.00,VWS V15.00,2015-08-27 10:50:00,
2015-08-27 05:55:00,69.8,57.5,29.68,SSW,206,0.0,0.0,65,0.00,,,0.00,0.00,VWS V15.00,2015-08-27 10:55:00,
2015-08-27 06:00:00,69.6,57.3,29.68,SSW,208,0.0,0.0,65,0.00,,,0.00,0.00,VWS V15.00,2015-08-27 11:00:00,
2015-08-27 06:05:00,69.6,57.3,29.67,SSW,195,0.0,0.0,65,0.00,,,0.00,0.00,VWS V15.00,2015-08-27 11:05:00,
2015-08-27 06:10:00,69.4,57.1,29.67,South,191,0.0,0.0,65,0.00,,,0.00,0.00,VWS V15.00,2015-08-27 11:10:00,
2015-08-27 06:15:00,69.4,57.1,29.67,SSE,154,0.0,0.0,65,0.00,,,0.00,0.00,VWS V15.00,2015-08-27 11:15:00,
2015-08-27 06:20:00,69.4,57.1,29.68,SSE,161,0.0,0.0,65,0.00,,,0.00,0.00,VWS V15.00,2015-08-27 11:20:00,
2015-08-27 06:25:00,69.4,57.1,29.68,South,188,0.0,0.0,65,0.00,,,0.00,0.00,VWS V15.00,2015-08-27 11:25:00,
2015-08-27 06:30:00,69.6,57.3,29.68,South,186,0.0,2.0,65,0.00,,,0.00,0.00,VWS V15.00,2015-08-27 11:30:00,
2015-08-27 06:35:00,69.6,56.9,29.67,South,188,0.0,0.0,64,0.00,,,0.00,0.00,VWS V15.00,2015-08-27 11:35:00,
2015-08-27 06:40:00,69.6,56.9,29.67,South,171,2.0,3.0,64,0.00,,,0.00,0.00,VWS V15.00,2015-08-27 11:40:00,
2015-08-27 06:45:00,69.6,56.9,29.67,SSW,202,1.0,6.0,64,0.00,,,0.00,0.00,VWS V15.00,2015-08-27 11:45:00,
2015-08-27 06:50:00,69.8,57.1,29.66,SSW,212,0.0,2.0,64,0.00,,,0.00,0.00,VWS V15.00,2015-08-27 11:50:00,
2015-08-27 06:55:00,69.8,56.7,29.66,South,184,3.0,6.0,63,0.00,,,0.00,0.00,VWS V15.00,2015-08-27 11:55:00,
2015-08-27 07:00:00,69.9,56.8,29.66,South,179,0.0,5.0,63,0.00,,,0.00,0.00,VWS V15.00,2015-08-27 12:00:00,
2015-08-27 07:05:00,70.1,56.5,29.66,SSE,168,0.0,7.0,62,0.00,,,0.00,0.00,VWS V15.00,2015-08-27 12:05:00,
2015-08-27 07:10:00,70.3,56.7,29.66,SSW,200,2.0,11.0,62,0.00,,,0.00,0.00,VWS V15.00,2015-08-27 12:10:00,
2015-08-27 07:15:00,70.4,56.3,29.66,SSW,199,6.0,8.0,61,0.00,,,0.00,0.00,VWS V15.00,2015-08-27 12:15:00,
2015-08-27 07:20:00,70.8,56.2,29.67,South,186,0.0,3.0,60,0.00,,,0.00,5.00,VWS V15.00,2015-08-27 12:20:00,
2015-08-27 07:25:00,70.9,56.3,29.67,SSW,199,2.0,8.0,60,0.00,,,0.00,16.00,VWS V15.00,2015-08-27 12:25:00,
2015-08-27 07:30:00,71.1,56.5,29.67,South,172,5.0,8.0,60,0.00,,,0.00,25.00,VWS V15.00,2015-08-27 12:30:00,
2015-08-27 07:35:00,71.1,56.5,29.67,South,181,0.0,6.0,60,0.00,,,0.00,30.00,VWS V15.00,2015-08-27 12:35:00,
2015-08-27 07:40:00,71.3,56.7,29.67,South,189,0.0,0.0,60,0.00,,,0.00,37.00,VWS V15.00,2015-08-27 12:40:00,
2015-08-27 07:45:00,71.3,56.7,29.67,SSW,209,0.0,7.0,60,0.00,,,0.00,91.00,VWS V15.00,2015-08-27 12:45:00,
2015-08-27 07:50:00,71.5,56.4,29.67,SSW,196,3.0,10.0,59,0.00,,,0.00,106.00,VWS V15.00,2015-08-27 12:50:00,
2015-08-27 07:55:00,71.6,56.5,29.67,SSW,202,1.0,8.0,59,0.00,,,0.00,62.00,VWS V15.00,2015-08-27 12:55:00,
2015-08-27 08:00:00,72.0,56.9,29.67,SSW,199,0.0,0.0,59,0.00,,,0.00,65.00,VWS V15.00,2015-08-27 13:00:00,
2015-08-27 08:05:00,72.1,56.5,29.67,SSW,200,0.0,8.0,58,0.00,,,0.00,67.00,VWS V15.00,2015-08-27 13:05:00,
2015-08-27 08:09:00,72.3,56.7,29.67,SSW,193,0.0,7.0,58,0.00,,,0.00,67.00,VWS V15.00,2015-08-27 13:09:00,
2015-08-27 08:14:00,72.5,56.9,29.67,SSW,193,0.0,6.0,58,0.00,,,0.00,69.00,VWS V15.00,2015-08-27 13:14:00,
2015-08-27 08:19:00,72.7,56.6,29.68,SW,226,0.0,5.0,57,0.00,,,0.00,70.00,VWS V15.00,2015-08-27 13:19:00,
2015-08-27 08:24:00,72.8,56.7,29.68,SW,223,0.0,8.0,57,0.00,,,0.00,72.00,VWS V15.00,2015-08-27 13:24:00,
2015-08-27 08:29:00,73.2,56.1,29.68,SW,226,2.0,6.0,55,0.00,,,0.00,69.00,VWS V15.00,2015-08-27 13:29:00,
2015-08-27 08:34:00,73.7,56.0,29.68,South,186,1.0,10.0,54,0.00,,,0.00,67.00,VWS V15.00,2015-08-27 13:34:00,
2015-08-27 08:39:00,74.2,56.0,29.68,SSW,200,4.0,13.0,53,0.00,,,0.00,65.00,VWS V15.00,2015-08-27 13:39:00,
2015-08-27 08:44:00,74.7,55.9,29.68,SSW,206,2.0,8.0,52,0.00,,,0.00,70.00,VWS V15.00,2015-08-27 13:44:00,
2015-08-27 08:49:00,75.1,55.8,29.67,South,178,7.0,13.0,51,0.00,,,0.00,83.00,VWS V15.00,2015-08-27 13:49:00,
2015-08-27 08:54:00,75.3,55.9,29.67,SW,215,5.0,11.0,51,0.00,,,0.00,97.00,VWS V15.00,2015-08-27 13:54:00,
2015-08-27 08:59:00,75.4,56.0,29.67,SSW,199,6.0,7.0,51,0.00,,,0.00,106.00,VWS V15.00,2015-08-27 13:59:00,
2015-08-27 09:04:00,75.6,56.2,29.67,SSW,192,2.0,6.0,51,0.00,,,0.00,111.00,VWS V15.00,2015-08-27 14:04:00,
2015-08-27 09:09:00,75.8,56.4,29.67,SW,220,2.0,7.0,51,0.00,,,0.00,109.00,VWS V15.00,2015-08-27 14:09:00,
2015-08-27 09:14:00,75.8,55.9,29.67,SSW,195,3.0,7.0,50,0.00,,,0.00,109.00,VWS V15.00,2015-08-27 14:14:00,
2015-08-27 09:19:00,76.0,56.0,29.67,SSW,192,7.0,7.0,50,0.00,,,0.00,120.00,VWS V15.00,2015-08-27 14:19:00,
2015-08-27 09:24:00,76.3,56.3,29.67,SW,232,2.0,11.0,50,0.00,,,0.00,137.00,VWS V15.00,2015-08-27 14:24:00,
2015-08-27 09:29:00,76.5,56.5,29.67,SW,229,2.0,6.0,50,0.00,,,0.00,146.00,VWS V15.00,2015-08-27 14:29:00,
2015-08-27 09:34:00,76.5,56.5,29.67,SW,217,4.0,11.0,50,0.00,,,0.00,155.00,VWS V15.00,2015-08-27 14:34:00,
2015-08-27 09:39:00,76.7,56.7,29.67,SW,216,2.0,7.0,50,0.00,,,0.00,165.00,VWS V15.00,2015-08-27 14:39:00,
2015-08-27 09:44:00,76.8,56.8,29.67,SSW,200,7.0,11.0,50,0.00,,,0.00,185.00,VWS V15.00,2015-08-27 14:44:00,
2015-08-27 09:49:00,77.0,56.4,29.66,SSW,208,6.0,12.0,49,0.00,,,0.00,197.00,VWS V15.00,2015-08-27 14:49:00,
2015-08-27 09:54:00,77.2,56.6,29.66,WSW,248,4.0,7.0,49,0.00,,,0.00,208.00,VWS V15.00,2015-08-27 14:54:00,
2015-08-27 09:59:00,77.4,56.2,29.66,SW,217,5.0,9.0,48,0.00,,,0.00,225.00,VWS V15.00,2015-08-27 14:59:00,
2015-08-27 10:04:00,77.7,57.0,29.65,SW,233,2.0,7.0,49,0.00,,,0.00,241.00,VWS V15.00,2015-08-27 15:04:00,
2015-08-27 10:09:00,78.1,56.8,29.65,SSW,192,4.0,7.0,48,0.00,,,0.00,255.00,VWS V15.00,2015-08-27 15:09:00,
2015-08-27 10:14:00,78.5,57.2,29.65,WSW,248,2.0,6.0,48,0.00,,,0.00,260.00,VWS V15.00,2015-08-27 15:14:00,
2015-08-27 10:19:00,78.6,56.7,29.66,SW,233,6.0,13.0,47,0.00,,,0.00,274.00,VWS V15.00,2015-08-27 15:19:00,
2015-08-27 10:24:00,79.0,56.5,29.66,West,264,7.0,9.0,46,0.00,,,0.00,292.00,VWS V15.00,2015-08-27 15:24:00,
2015-08-27 10:29:00,79.2,56.7,29.66,SW,229,4.0,8.0,46,0.00,,,0.00,317.00,VWS V15.00,2015-08-27 15:29:00,
2015-08-27 10:34:00,79.6,56.4,29.67,West,267,7.0,13.0,45,0.00,,,0.00,264.00,VWS V15.00,2015-08-27 15:34:00,
2015-08-27 10:39:00,79.8,56.6,29.67,WSW,248,3.0,9.0,45,0.00,,,0.00,260.00,VWS V15.00,2015-08-27 15:39:00,
2015-08-27 10:44:00,80.3,55.1,29.67,WSW,254,7.0,10.0,42,0.00,,,0.00,260.00,VWS V15.00,2015-08-27 15:44:00,
2015-08-27 10:49:00,80.7,55.5,29.67,WSW,237,4.0,8.0,42,0.00,,,0.00,621.00,VWS V15.00,2015-08-27 15:49:00,
2015-08-27 10:54:00,81.4,54.8,29.67,SE,143,6.0,13.0,40,0.00,,,0.00,618.00,VWS V15.00,2015-08-27 15:54:00,
2015-08-27 10:59:00,82.6,54.5,29.67,SW,230,5.0,11.0,38,0.00,,,0.00,656.00,VWS V15.00,2015-08-27 15:59:00,
2015-08-27 11:04:00,83.6,53.8,29.66,SW,232,9.0,11.0,36,0.00,,,0.00,584.00,VWS V15.00,2015-08-27 16:04:00,
2015-08-27 11:09:00,84.0,53.4,29.66,SW,232,8.0,12.0,35,0.00,,,0.00,649.00,VWS V15.00,2015-08-27 16:09:00,
2015-08-27 11:14:00,84.3,52.9,29.66,West,271,8.0,14.0,34,0.00,,,0.00,582.00,VWS V15.00,2015-08-27 16:14:00,
2015-08-27 11:19:00,84.7,53.3,29.66,SW,234,7.0,13.0,34,0.00,,,0.00,545.00,VWS V15.00,2015-08-27 16:19:00,
2015-08-27 11:24:00,84.9,53.4,29.66,SSW,210,3.0,11.0,34,0.00,,,0.00,679.00,VWS V15.00,2015-08-27 16:24:00,
2015-08-27 11:29:00,85.3,53.8,29.66,WSW,243,8.0,13.0,34,0.00,,,0.00,683.00,VWS V15.00,2015-08-27 16:29:00,
2015-08-27 11:34:00,85.7,53.3,29.65,West,261,3.0,14.0,33,0.00,,,0.00,540.00,VWS V15.00,2015-08-27 16:34:00,
2015-08-27 11:39:00,85.9,52.7,29.65,WSW,250,7.0,17.0,32,0.00,,,0.00,737.00,VWS V15.00,2015-08-27 16:39:00,
2015-08-27 11:44:00,86.1,52.8,29.65,West,261,13.0,13.0,32,0.00,,,0.00,658.00,VWS V15.00,2015-08-27 16:44:00,
2015-08-27 11:49:00,86.1,52.8,29.65,West,263,10.0,16.0,32,0.00,,,0.00,711.00,VWS V15.00,2015-08-27 16:49:00,
2015-08-27 11:54:00,85.9,54.3,29.65,West,263,14.0,14.0,34,0.00,,,0.00,706.00,VWS V15.00,2015-08-27 16:54:00,
2015-08-27 11:59:00,86.1,54.5,29.65,West,261,6.0,15.0,34,0.00,,,0.00,686.00,VWS V15.00,2015-08-27 16:59:00,
2015-08-27 12:04:00,86.3,53.0,29.65,WSW,240,6.0,11.0,32,0.00,,,0.00,450.00,VWS V15.00,2015-08-27 17:04:00,
2015-08-27 12:09:00,86.1,53.7,29.65,WSW,239,6.0,12.0,33,0.00,,,0.00,762.00,VWS V15.00,2015-08-27 17:09:00,
2015-08-27 12:14:00,86.3,53.8,29.65,WSW,250,11.0,14.0,33,0.00,,,0.00,751.00,VWS V15.00,2015-08-27 17:14:00,
2015-08-27 12:19:00,86.7,52.5,29.64,WSW,241,7.0,12.0,31,0.00,,,0.00,748.00,VWS V15.00,2015-08-27 17:19:00,
2015-08-27 12:24:00,87.2,52.9,29.64,West,275,3.0,16.0,31,0.00,,,0.00,758.00,VWS V15.00,2015-08-27 17:24:00,
2015-08-27 12:29:00,88.0,53.6,29.64,WSW,240,7.0,11.0,31,0.00,,,0.00,750.00,VWS V15.00,2015-08-27 17:29:00,
2015-08-27 12:34:00,88.4,53.1,29.64,West,264,7.0,11.0,30,0.00,,,0.00,757.00,VWS V15.00,2015-08-27 17:34:00,
2015-08-27 12:39:00,88.4,52.1,29.64,West,271,11.0,14.0,29,0.00,,,0.00,753.00,VWS V15.00,2015-08-27 17:39:00,
2015-08-27 12:44:00,88.4,52.1,29.64,SSW,198,2.0,10.0,29,0.00,,,0.00,695.00,VWS V15.00,2015-08-27 17:44:00,
2015-08-27 12:49:00,88.8,51.5,29.63,West,264,4.0,12.0,28,0.00,,,0.00,790.00,VWS V15.00,2015-08-27 17:49:00,
2015-08-27 12:54:00,89.0,51.7,29.63,West,268,9.0,13.0,28,0.00,,,0.00,790.00,VWS V15.00,2015-08-27 17:54:00,
2015-08-27 12:59:00,89.5,52.1,29.63,West,260,3.0,11.0,28,0.00,,,0.00,792.00,VWS V15.00,2015-08-27 17:59:00,
2015-08-27 13:04:00,89.7,52.3,29.63,West,274,11.0,14.0,28,0.00,,,0.00,787.00,VWS V15.00,2015-08-27 18:04:00,
2015-08-27 13:09:00,89.5,52.1,29.63,WNW,299,7.0,11.0,28,0.00,,,0.00,787.00,VWS V15.00,2015-08-27 18:09:00,
2015-08-27 13:14:00,89.5,53.1,29.63,WSW,237,3.0,10.0,29,0.00,,,0.00,776.00,VWS V15.00,2015-08-27 18:14:00,
2015-08-27 13:19:00,89.9,52.5,29.62,West,260,8.0,12.0,28,0.00,,,0.00,818.00,VWS V15.00,2015-08-27 18:19:00,
2015-08-27 13:24:00,90.3,52.8,29.62,WSW,250,0.0,10.0,28,0.00,,,0.00,892.00,VWS V15.00,2015-08-27 18:24:00,
2015-08-27 13:29:00,90.5,53.0,29.62,WSW,251,10.0,14.0,28,0.00,,,0.00,892.00,VWS V15.00,2015-08-27 18:29:00,
2015-08-27 13:34:00,90.5,53.0,29.61,West,275,4.0,7.0,28,0.00,,,0.00,889.00,VWS V15.00,2015-08-27 18:34:00,
2015-08-27 13:39:00,90.7,53.2,29.61,WSW,256,0.0,14.0,28,0.00,,,0.00,889.00,VWS V15.00,2015-08-27 18:39:00,
2015-08-27 13:44:00,91.2,53.6,29.61,WSW,257,3.0,11.0,28,0.00,,,0.00,327.00,VWS V15.00,2015-08-27 18:44:00,
2015-08-27 13:49:00,91.4,52.8,29.61,WSW,253,6.0,6.0,27,0.00,,,0.00,447.00,VWS V15.00,2015-08-27 18:49:00,
2015-08-27 13:54:00,91.6,53.9,29.61,WSW,256,7.0,7.0,28,0.00,,,0.00,350.00,VWS V15.00,2015-08-27 18:54:00,
2015-08-27 13:59:00,91.4,53.8,29.61,WNW,296,10.0,13.0,28,0.00,,,0.00,380.00,VWS V15.00,2015-08-27 18:59:00,
2015-08-27 14:04:00,91.0,54.4,29.61,WNW,288,11.0,11.0,29,0.00,,,0.00,468.00,VWS V15.00,2015-08-27 19:04:00,
2015-08-27 14:09:00,91.4,53.8,29.61,WNW,282,10.0,17.0,28,0.00,,,0.00,940.00,VWS V15.00,2015-08-27 19:09:00,
2015-08-27 14:14:00,91.8,54.1,29.61,West,263,9.0,12.0,28,0.00,,,0.00,804.00,VWS V15.00,2015-08-27 19:14:00,
2015-08-27 14:19:00,92.3,53.5,29.60,West,274,7.0,12.0,27,0.00,,,0.00,318.00,VWS V15.00,2015-08-27 19:19:00,
2015-08-27 14:24:00,92.3,54.5,29.60,WNW,282,10.0,13.0,28,0.00,,,0.00,684.00,VWS V15.00,2015-08-27 19:24:00,
2015-08-27 14:29:00,92.5,53.7,29.60,WNW,282,8.0,12.0,27,0.00,,,0.00,560.00,VWS V15.00,2015-08-27 19:29:00,
2015-08-27 14:34:00,92.7,54.8,29.59,West,267,7.0,16.0,28,0.00,,,0.00,560.00,VWS V15.00,2015-08-27 19:34:00,
2015-08-27 14:39:00,92.5,54.7,29.59,West,261,10.0,13.0,28,0.00,,,0.00,479.00,VWS V15.00,2015-08-27 19:39:00,
2015-08-27 14:44:00,92.5,54.7,29.59,West,260,7.0,17.0,28,0.00,,,0.00,764.00,VWS V15.00,2015-08-27 19:44:00,
2015-08-27 14:49:00,92.5,53.7,29.59,West,264,18.0,21.0,27,0.00,,,0.00,554.00,VWS V15.00,2015-08-27 19:49:00,
2015-08-27 14:54:00,92.1,54.3,29.59,West,272,2.0,11.0,28,0.00,,,0.00,377.00,VWS V15.00,2015-08-27 19:54:00,
2015-08-27 14:59:00,91.8,54.1,29.59,West,271,14.0,14.0,28,0.00,,,0.00,435.00,VWS V15.00,2015-08-27 19:59:00,
2015-08-27 15:04:00,91.8,54.1,29.59,WNW,295,10.0,16.0,28,0.00,,,0.00,639.00,VWS V15.00,2015-08-27 20:04:00,
2015-08-27 15:09:00,92.1,54.3,29.59,West,263,11.0,13.0,28,0.00,,,0.00,542.00,VWS V15.00,2015-08-27 20:09:00,
2015-08-27 15:14:00,92.1,55.3,29.59,West,264,8.0,13.0,29,0.00,,,0.00,431.00,VWS V15.00,2015-08-27 20:14:00,
2015-08-27 15:19:00,92.1,54.3,29.59,WNW,301,6.0,13.0,28,0.00,,,0.00,433.00,VWS V15.00,2015-08-27 20:19:00,
2015-08-27 15:24:00,92.1,55.3,29.59,NW,304,5.0,10.0,29,0.00,,,0.00,595.00,VWS V15.00,2015-08-27 20:24:00,
2015-08-27 15:29:00,91.6,53.9,29.59,WNW,302,10.0,13.0,28,0.00,,,0.00,259.00,VWS V15.00,2015-08-27 20:29:00,
2015-08-27 15:34:00,91.2,53.6,29.60,WNW,288,8.0,12.0,28,0.00,,,0.00,317.00,VWS V15.00,2015-08-27 20:34:00,
2015-08-27 15:39:00,91.2,52.6,29.60,West,274,3.0,8.0,27,0.00,,,0.00,274.00,VWS V15.00,2015-08-27 20:39:00,
2015-08-27 15:44:00,91.8,54.1,29.60,West,280,4.0,11.0,28,0.00,,,0.00,311.00,VWS V15.00,2015-08-27 20:44:00,
2015-08-27 15:49:00,92.3,53.5,29.59,West,264,11.0,12.0,27,0.00,,,0.00,317.00,VWS V15.00,2015-08-27 20:49:00,
2015-08-27 15:54:00,92.1,54.3,29.59,WNW,294,7.0,11.0,28,0.00,,,0.00,313.00,VWS V15.00,2015-08-27 20:54:00,
2015-08-27 15:59:00,92.1,54.3,29.59,WNW,287,5.0,8.0,28,0.00,,,0.00,303.00,VWS V15.00,2015-08-27 20:59:00,
2015-08-27 16:04:00,91.8,54.1,29.59,WNW,288,5.0,8.0,28,0.00,,,0.00,361.00,VWS V15.00,2015-08-27 21:04:00,
2015-08-27 16:09:00,91.8,54.1,29.59,WNW,287,4.0,7.0,28,0.00,,,0.00,310.00,VWS V15.00,2015-08-27 21:09:00,
2015-08-27 16:14:00,91.8,53.1,29.59,West,265,3.0,7.0,27,0.00,,,0.00,364.00,VWS V15.00,2015-08-27 21:14:00,
2015-08-27 16:19:00,92.1,53.3,29.60,WNW,291,4.0,10.0,27,0.00,,,0.00,239.00,VWS V15.00,2015-08-27 21:19:00,
2015-08-27 16:24:00,91.8,54.1,29.60,West,270,2.0,5.0,28,0.00,,,0.00,179.00,VWS V15.00,2015-08-27 21:24:00,
2015-08-27 16:29:00,91.6,53.9,29.60,West,274,9.0,11.0,28,0.00,,,0.00,169.00,VWS V15.00,2015-08-27 21:29:00,
2015-08-27 16:34:00,91.4,56.5,29.60,West,278,6.0,10.0,31,0.00,,,0.00,225.00,VWS V15.00,2015-08-27 21:34:00,
2015-08-27 16:39:00,91.2,56.4,29.60,West,274,4.0,8.0,31,0.00,,,0.00,285.00,VWS V15.00,2015-08-27 21:39:00,
2015-08-27 16:44:00,91.4,53.8,29.60,WNW,288,6.0,8.0,28,0.00,,,0.00,528.00,VWS V15.00,2015-08-27 21:44:00,
2015-08-27 16:49:00,91.6,53.9,29.60,West,278,2.0,6.0,28,0.00,,,0.00,334.00,VWS V15.00,2015-08-27 21:49:00,
2015-08-27 16:54:00,92.5,55.7,29.60,West,277,1.0,6.0,29,0.00,,,0.00,355.00,VWS V15.00,2015-08-27 21:54:00,
2015-08-27 16:59:00,93.2,54.3,29.60,West,260,0.0,5.0,27,0.00,,,0.00,711.00,VWS V15.00,2015-08-27 21:59:00,
2015-08-27 17:04:00,93.6,55.6,29.58,WNW,288,4.0,6.0,28,0.00,,,0.00,334.00,VWS V15.00,2015-08-27 22:04:00,
2015-08-27 17:09:00,94.0,56.9,29.58,NNW,347,0.0,5.0,29,0.00,,,0.00,285.00,VWS V15.00,2015-08-27 22:09:00,
2015-08-27 17:14:00,94.0,56.0,29.58,WNW,287,2.0,7.0,28,0.00,,,0.00,218.00,VWS V15.00,2015-08-27 22:14:00,
2015-08-27 17:19:00,93.8,55.8,29.58,North,354,5.0,5.0,28,0.00,,,0.00,176.00,VWS V15.00,2015-08-27 22:19:00,
2015-08-27 17:24:00,93.2,55.3,29.58,WNW,295,0.0,8.0,28,0.00,,,0.00,213.00,VWS V15.00,2015-08-27 22:24:00,
2015-08-27 17:29:00,92.7,55.8,29.58,WNW,294,0.0,5.0,29,0.00,,,0.00,223.00,VWS V15.00,2015-08-27 22:29:00,
2015-08-27 17:34:00,92.9,54.0,29.58,WNW,291,0.0,4.0,27,0.00,,,0.00,359.00,VWS V15.00,2015-08-27 22:34:00,
2015-08-27 17:39:00,93.2,55.3,29.58,WNW,291,0.0,0.0,28,0.00,,,0.00,197.00,VWS V15.00,2015-08-27 22:39:00,
2015-08-27 17:43:00,93.4,55.5,29.58,NW,312,2.0,7.0,28,0.00,,,0.00,190.00,VWS V15.00,2015-08-27 22:43:00,
2015-08-27 17:48:00,93.2,57.2,29.58,NNW,333,0.0,6.0,30,0.00,,,0.00,204.00,VWS V15.00,2015-08-27 22:48:00,
2015-08-27 17:53:00,93.2,58.1,29.58,NNW,335,0.0,0.0,31,0.00,,,0.00,150.00,VWS V15.00,2015-08-27 22:53:00,
2015-08-27 17:58:00,92.7,57.7,29.58,NNW,336,0.0,0.0,31,0.00,,,0.00,150.00,VWS V15.00,2015-08-27 22:58:00,
2015-08-27 18:03:00,92.3,57.3,29.57,NNW,336,0.0,0.0,31,0.00,,,0.00,151.00,VWS V15.00,2015-08-27 23:03:00,
2015-08-27 18:08:00,92.1,58.9,29.57,NNW,336,0.0,0.0,33,0.00,,,0.00,389.00,VWS V15.00,2015-08-27 23:08:00,
2015-08-27 18:13:00,92.1,58.0,29.57,NNW,337,0.0,0.0,32,0.00,,,0.00,106.00,VWS V15.00,2015-08-27 23:13:00,
2015-08-27 18:18:00,91.8,58.6,29.57,NNW,336,0.0,0.0,33,0.00,,,0.00,83.00,VWS V15.00,2015-08-27 23:18:00,
2015-08-27 18:23:00,91.6,59.3,29.57,NNW,337,0.0,0.0,34,0.00,,,0.00,79.00,VWS V15.00,2015-08-27 23:23:00,
2015-08-27 18:28:00,91.2,58.1,29.57,NNW,339,0.0,0.0,33,0.00,,,0.00,63.00,VWS V15.00,2015-08-27 23:28:00,
2015-08-27 18:33:00,90.7,59.3,29.57,NNW,337,0.0,0.0,35,0.00,,,0.00,65.00,VWS V15.00,2015-08-27 23:33:00,
2015-08-27 18:38:00,90.5,59.9,29.57,NNW,337,0.0,0.0,36,0.00,,,0.00,60.00,VWS V15.00,2015-08-27 23:38:00,
2015-08-27 18:43:00,90.3,60.5,29.57,NNW,337,0.0,0.0,37,0.00,,,0.00,70.00,VWS V15.00,2015-08-27 23:43:00,
2015-08-27 18:48:00,90.1,61.1,29.57,NNW,337,0.0,0.0,38,0.00,,,0.00,77.00,VWS V15.00,2015-08-27 23:48:00,
2015-08-27 18:53:00,89.7,60.7,29.57,NNW,337,0.0,0.0,38,0.00,,,0.00,97.00,VWS V15.00,2015-08-27 23:53:00,
2015-08-27 18:58:00,89.5,61.3,29.57,NNW,337,0.0,1.0,39,0.00,,,0.00,93.00,VWS V15.00,2015-08-27 23:58:00,
2015-08-27 19:03:00,89.0,61.6,29.57,NNW,340,0.0,5.0,40,0.00,,,0.00,113.00,VWS V15.00,2015-08-28 00:03:00,
2015-08-27 19:08:00,88.8,62.1,29.57,North,0,0.0,5.0,41,0.00,,,0.00,181.00,VWS V15.00,2015-08-28 00:08:00,
2015-08-27 19:13:00,88.6,62.6,29.57,North,11,0.0,2.0,42,0.00,,,0.00,167.00,VWS V15.00,2015-08-28 00:13:00,
2015-08-27 19:18:00,88.4,62.4,29.58,North,6,0.0,3.0,42,0.00,,,0.00,95.00,VWS V15.00,2015-08-28 00:18:00,
2015-08-27 19:23:00,88.4,63.1,29.58,North,357,0.0,1.0,43,0.00,,,0.00,67.00,VWS V15.00,2015-08-28 00:23:00,
2015-08-27 19:28:00,88.2,62.2,29.58,NW,318,5.0,7.0,42,0.00,,,0.00,58.00,VWS V15.00,2015-08-28 00:28:00,
2015-08-27 19:33:00,88.0,62.0,29.58,NNW,339,2.0,6.0,42,0.00,,,0.00,49.00,VWS V15.00,2015-08-28 00:33:00,
2015-08-27 19:38:00,87.8,61.9,29.58,NW,319,0.0,3.0,42,0.00,,,0.00,44.00,VWS V15.00,2015-08-28 00:38:00,
2015-08-27 19:43:00,87.6,62.4,29.58,North,349,0.0,0.0,43,0.00,,,0.00,35.00,VWS V15.00,2015-08-28 00:43:00,
2015-08-27 19:48:00,87.4,62.2,29.58,NNW,347,0.0,1.0,43,0.00,,,0.00,42.00,VWS V15.00,2015-08-28 00:48:00,
2015-08-27 19:53:00,87.2,62.0,29.58,NNW,347,0.0,0.0,43,0.00,,,0.00,25.00,VWS V15.00,2015-08-28 00:53:00,
2015-08-27 19:58:00,87.0,62.5,29.58,NNW,347,0.0,0.0,44,0.00,,,0.00,18.00,VWS V15.00,2015-08-28 00:58:00,
2015-08-27 20:03:00,86.5,62.0,29.59,NNW,347,0.0,0.0,44,0.00,,,0.00,11.00,VWS V15.00,2015-08-28 01:03:00,
2015-08-27 20:08:00,86.5,62.0,29.59,NNW,347,0.0,0.0,44,0.00,,,0.00,0.00,VWS V15.00,2015-08-28 01:08:00,
2015-08-27 20:13:00,86.3,61.8,29.59,NNW,347,0.0,0.0,44,0.00,,,0.00,0.00,VWS V15.00,2015-08-28 01:13:00,
2015-08-27 20:18:00,86.1,61.7,29.58,NNW,347,0.0,0.0,44,0.00,,,0.00,0.00,VWS V15.00,2015-08-28 01:18:00,
2015-08-27 20:19:00,86.1,61.7,29.58,NNW,347,0.0,0.0,44,0.00,,,0.00,0.00,VWS V15.00,2015-08-28 01:19:00,
2015-08-27 20:24:00,85.9,62.1,29.58,NNW,347,0.0,0.0,45,0.00,,,0.00,0.00,VWS V15.00,2015-08-28 01:24:00,
2015-08-27 20:29:00,85.7,62.6,29.58,NNW,347,0.0,0.0,46,0.00,,,0.00,0.00,VWS V15.00,2015-08-28 01:29:00,
2015-08-27 20:34:00,85.3,62.8,29.60,NNW,347,0.0,1.0,47,0.00,,,0.00,0.00,VWS V15.00,2015-08-28 01:34:00,
2015-08-27 20:39:00,84.7,62.3,29.60,NW,323,0.0,4.0,47,0.00,,,0.00,0.00,VWS V15.00,2015-08-28 01:39:00,
2015-08-27 20:44:00,84.1,61.7,29.60,NW,306,2.0,4.0,47,0.00,,,0.00,0.00,VWS V15.00,2015-08-28 01:44:00,
2015-08-27 20:49:00,84.0,61.6,29.61,NW,318,1.0,4.0,47,0.00,,,0.00,0.00,VWS V15.00,2015-08-28 01:49:00,
2015-08-27 20:54:00,83.8,61.4,29.61,North,353,0.0,3.0,47,0.00,,,0.00,0.00,VWS V15.00,2015-08-28 01:54:00,
2015-08-27 20:59:00,83.6,61.8,29.61,WNW,299,2.0,6.0,48,0.00,,,0.00,0.00,VWS V15.00,2015-08-28 01:59:00,
2015-08-27 21:04:00,83.4,61.7,29.62,WNW,291,5.0,6.0,48,0.00,,,0.00,0.00,VWS V15.00,2015-08-28 02:04:00,
2015-08-27 21:09:00,83.0,61.3,29.62,WNW,292,2.0,3.0,48,0.00,,,0.00,0.00,VWS V15.00,2015-08-28 02:09:00,
2015-08-27 21:14:00,82.6,61.5,29.62,NW,308,5.0,8.0,49,0.00,,,0.00,0.00,VWS V15.00,2015-08-28 02:14:00,
2015-08-27 21:19:00,82.4,61.3,29.62,WNW,296,2.0,10.0,49,0.00,,,0.00,0.00,VWS V15.00,2015-08-28 02:19:00,
2015-08-27 21:29:00,82.0,61.0,29.62,WNW,302,3.0,10.0,49,0.00,,,0.00,0.00,VWS V15.00,2015-08-28 02:29:00,
2015-08-27 21:34:00,81.8,61.4,29.62,West,281,3.0,8.0,50,0.00,,,0.00,0.00,VWS V15.00,2015-08-28 02:34:00,
2015-08-27 21:39:00,81.6,61.2,29.62,WNW,301,2.0,6.0,50,0.00,,,0.00,0.00,VWS V15.00,2015-08-28 02:39:00,
2015-08-27 21:43:00,81.2,61.4,29.62,WNW,298,3.0,8.0,51,0.00,,,0.00,0.00,VWS V15.00,2015-08-28 02:43:00,
2015-08-27 21:48:00,80.7,61.5,29.63,West,280,5.0,7.0,52,0.00,,,0.00,0.00,VWS V15.00,2015-08-28 02:48:00,
2015-08-27 21:53:00,80.1,62.0,29.63,WNW,291,3.0,6.0,54,0.00,,,0.00,0.00,VWS V15.00,2015-08-28 02:53:00,
2015-08-27 21:58:00,79.4,61.8,29.63,WNW,294,4.0,7.0,55,0.00,,,0.00,0.00,VWS V15.00,2015-08-28 02:58:00,
2015-08-27 22:03:00,78.8,61.8,29.64,WNW,287,5.0,5.0,56,0.00,,,0.00,0.00,VWS V15.00,2015-08-28 03:03:00,
2015-08-27 22:08:00,78.3,61.8,29.64,WNW,287,6.0,7.0,57,0.00,,,0.00,0.00,VWS V15.00,2015-08-28 03:08:00,
2015-08-27 22:13:00,77.9,62.0,29.64,WNW,285,4.0,6.0,58,0.00,,,0.00,0.00,VWS V15.00,2015-08-28 03:13:00,
2015-08-27 22:18:00,77.6,62.2,29.63,WNW,294,3.0,7.0,59,0.00,,,0.00,0.00,VWS V15.00,2015-08-28 03:18:00,
2015-08-27 22:23:00,77.2,62.2,29.63,WNW,289,5.0,5.0,60,0.00,,,0.00,0.00,VWS V15.00,2015-08-28 03:23:00,
2015-08-27 22:28:00,76.7,62.2,29.63,WNW,285,3.0,7.0,61,0.00,,,0.00,0.00,VWS V15.00,2015-08-28 03:28:00,